Location: *
(45.1961°N, 1.9694°E)
Time: 08:46:24
(UTC+00:00)

USA 245 - Pass Details

Date: 25 August 2019
Orbit: 266 x 1000 km, 97.9° (Epoch: 21 September)

Event Time Altitude Azimuth Distance (km) Brightness Sun altitude
Exits shadow 21:21:50 42° 204° (SSW) 1,115 4.6 -24.5°
Maximum altitude 21:23:24 60° 261° (W) 942 4.5 -24.7°
Drops below altitude 10° 21:29:16 10° 341° (NNW) 2,634 7.7 -25.3°
Sets 21:31:56 0° 345° (NNW) 3,649 8.5 -25.6°
